Powrót do katalogu

STARLINK-37447

AktywnyŁącznośćSSO
NORAD 68810·PAYLOAD·🇺🇸 United States

Wystrzelony Apr 23, 2026 z Vandenberg Space Force Base

Loading…

Następne Przeloty (najbliższe 24 godziny)

TLE

ŚwieżeSource: CelesTrak SupGP

Epoka: Sep 14, 2026, 22:55 UTC

1 68810C 26089J   26257.95534722  .00092244  00000+0  28635-2 0  2570
2 68810  97.2851 103.7681 0001877  93.8687  39.3070 15.33391754    11

Śledź STARLINK-37447 w czasie rzeczywistym z AllMySat

Download on the App Store